Location: Mentone
(34.5413°N, 85.5351°W)
Time: 00:57:03
(UTC-05:00)

Centaur AC-72 - Visible Passes

Search period start: 30 September 2014 00:00
Search period end: 10 October 2014 00:00
Orbit: 1107 x 35249 km, 19.1° (Epoch: 29 September)

Date Brightness Start Highest point End Pass type
(mag) Time Alt. Az. Time Alt. Az. Time Alt. Az.
30 Sep 7.0 04:52:00 23° WSW 23:59:30 52° WSW 06:28:54 10° SSW visible
30 Sep 7.4 17:56:34 10° SW 22:19:45 70° S 03:45:38 10° SSE visible
01 Oct 7.2 15:06:25 10° SSW 22:22:31 51° SE 00:46:33 10° ESE visible
02 Oct 8.8 17:42:56 10° E 20:56:52 11° E 21:02:06 10° E visible
03 Oct 9.2 00:10:49 10° W 01:31:24 19° W 03:56:22 10° W visible
03 Oct 7.0 20:39:22 10° WSW 22:40:54 56° WSW 06:12:58 10° SSW visible
04 Oct 7.4 17:40:36 10° SW 22:09:34 70° SSE 03:29:32 10° SSE visible
05 Oct 7.3 14:50:32 10° SSW 22:06:28 50° ESE 00:29:59 10° ESE visible
06 Oct 8.8 17:42:50 10° E 19:26:07 15° E 19:26:07 15° E visible
06 Oct 9.2 23:51:58 10° W 01:14:45 20° W 03:48:04 10° W visible
07 Oct 7.1 20:23:04 10° WSW 22:23:51 57° WSW 05:57:01 10° SSW visible
08 Oct 7.4 17:24:39 10° SW 21:59:12 69° SSE 03:13:26 10° SSE visible
09 Oct 7.3 14:34:39 10° SSW 21:50:26 48° ESE 21:56:50 48° ESE visible
